Tracking 29892 objects as of 21-Nov-2024
HD Live streaming from Space Station
objects crossing your sky now

RADUGA 16

Track RADUGA 16 now!
RADUGA 16 is classified as:


NORAD ID: 15946
Int'l Code: 1985-070A
Perigee: 35,795.2 km
Apogee: 35,819.5 km
Inclination: 10.4 °
Period: 1,436.8 minutes
Semi major axis: 42178 km
RCS: 3.2066 m2 (large)
Launch date: August 8, 1985
Source: Commonwealth of Independent States (former USSR) (CIS)
Launch site: TYURATAM MISSILE AND SPACE COMPLEX (TTMTR)
Your satellite tracking list
Your tracking list is empty




NASA's NSSDC Master Catalog

Two Line Element Set (TLE):
1 15946U 85070A   24325.85830771 -.00000292  00000-0  00000+0 0  9993
2 15946  10.4223 320.5959 0002870 250.6974 114.2404  1.00223290116476
Source of the keplerian elements: AFSPC